Weather History for Hurlburt Field, FL

Change the Weather History Date:

Sunday, January 27, 2013

  Actual Average Record
Temperature  
Mean Temperature 60 °F -  
Max Temperature 68 °F 59 °F 71 °F (1999)
Min Temperature 51 °F 42 °F 28 °F (2011)
Degree Days  
Heating Degree Days 6    
Growing Degree Days 10 (Base 50)    
Moisture  
Dew Point 58 °F    
Average Humidity 95    
Maximum Humidity 100    
Minimum Humidity 83    
Precipitation  
Precipitation 0.00 in - - ()
Sea Level Pressure  
Sea Level Pressure 30.28 in    
Wind  
Wind Speed 5 mph (ENE)    
Max Wind Speed 9 mph    
Max Gust Speed -    
Visibility 9 miles    
Events Fog , Rain    
Averages and records for this station are not official NWS values.
T = Trace of Precipitation, MM = Missing Value Source: NWS Daily Summary

Daily Weather History Graph

Daily Weather History Graph

Search for Another Location

Airport:

Trip Planner

Search our weather history database for the weather conditions in past years. The results will help you decide how hot, cold, wet, or windy it might be!

Date:

Astronomy

Jan. 27, 2013 Rise Set
Actual Time 6:40 AM CST 5:19 PM CST
Civil Twilight 6:14 AM CST 5:44 PM CST
Nautical Twilight 5:45 AM CST 6:13 PM CST
Astronomical Twilight 5:17 AM CST 6:42 PM CST
Moon 6:05 PM CST (1/27) 6:38 AM CST (1/27)
Length of Visible Light 11h 29m
Length of Day
10h 38m
Full, 100% of the Moon is Illuminated
Jan 27
Full
Feb 3
Last Quarter
Feb 10
New
Feb 17
First Quarter
Feb 25
Full

Hourly Weather History & Observations

Time (CST) Temp. Dew Point Humidity Pressure Visibility Wind Dir Wind Speed Gust Speed Precip Events Conditions
12:36 AM 53.6 °F 53.6 °F 100% 30.26 in 10.0 mi North 4.6 mph - N/A   Light Drizzle
12:55 AM 53.8 °F 53.8 °F 100% 30.27 in 10.0 mi North 5.8 mph - 0.00 in   Light Drizzle
1:10 AM 51.8 °F 51.8 °F 100% 30.27 in 10.0 mi North 6.9 mph - N/A   Clear
1:11 AM 51.8 °F 51.8 °F 100% 30.27 in 10.0 mi North 6.9 mph - N/A   Light Drizzle
1:19 AM 51.8 °F 51.8 °F 100% 30.27 in 8.0 mi North 6.9 mph - N/A   Light Drizzle
1:23 AM 51.8 °F 51.8 °F 100% 30.27 in 8.0 mi North 6.9 mph - N/A   Scattered Clouds
1:26 AM 51.8 °F 51.8 °F 100% 30.27 in 8.0 mi North 6.9 mph - N/A   Mostly Cloudy
1:28 AM 51.8 °F 51.8 °F 100% 30.27 in 7.0 mi North 6.9 mph - N/A   Light Drizzle
1:51 AM 53.6 °F 53.6 °F 100% 30.27 in 6.0 mi North 6.9 mph - N/A   Light Drizzle
1:55 AM 52.7 °F 52.7 °F 100% 30.27 in 7.0 mi North 6.9 mph - 0.00 in   Light Drizzle
2:18 AM 53.6 °F 53.6 °F 100% 30.27 in 9.0 mi North 6.9 mph - N/A   Light Drizzle
2:55 AM 52.5 °F 52.5 °F 100% 30.27 in 10.0 mi North 5.8 mph - 0.00 in   Light Drizzle
3:55 AM 53.8 °F 53.8 °F 100% 30.27 in 10.0 mi ENE 4.6 mph - 0.00 in   Light Drizzle
4:55 AM 54.0 °F 53.8 °F 99% 30.26 in 10.0 mi NE 3.5 mph - 0.00 in   Light Drizzle
5:11 AM 53.6 °F 53.6 °F 100% 30.27 in 10.0 mi NE 4.6 mph - N/A   Clear
5:13 AM 51.8 °F 51.8 °F 100% 30.27 in 10.0 mi NE 4.6 mph - N/A   Light Drizzle
5:18 AM 51.8 °F 51.8 °F 100% 30.27 in 10.0 mi NE 4.6 mph - N/A   Clear
5:19 AM 51.8 °F 51.8 °F 100% 30.27 in 10.0 mi NE 3.5 mph - N/A   Light Drizzle
5:23 AM 51.8 °F 51.8 °F 100% 30.27 in 10.0 mi ENE 4.6 mph - N/A   Clear
5:26 AM 53.6 °F 53.6 °F 100% 30.27 in 10.0 mi ENE 5.8 mph - N/A   Light Drizzle
5:55 AM 53.6 °F 53.6 °F 100% 30.27 in 10.0 mi ENE 5.8 mph - 0.00 in   Light Drizzle
6:25 AM 53.6 °F 53.6 °F 100% 30.28 in 10.0 mi NE 3.5 mph - N/A   Clear
6:29 AM 51.8 °F 51.8 °F 100% 30.28 in 10.0 mi NE 4.6 mph - N/A   Light Drizzle
6:55 AM 52.9 °F 52.9 °F 100% 30.29 in 10.0 mi ENE 4.6 mph - 0.00 in   Light Drizzle
7:55 AM 54.9 °F 54.9 °F 100% 30.30 in 10.0 mi ENE 6.9 mph - 0.00 in   Light Drizzle
8:07 AM 55.4 °F 55.4 °F 100% 30.31 in 10.0 mi East 8.1 mph - N/A   Clear
8:09 AM 55.4 °F 55.4 °F 100% 30.31 in 10.0 mi ENE 8.1 mph - N/A   Light Drizzle
8:55 AM 59.5 °F 59.0 °F 98% 30.32 in 10.0 mi ENE 8.1 mph - 0.00 in   Light Drizzle
9:13 AM 60.8 °F 59.0 °F 94% 30.33 in 10.0 mi ENE 8.1 mph - N/A   Clear
9:19 AM 60.8 °F 59.0 °F 94% 30.33 in 10.0 mi East 8.1 mph - N/A   Light Drizzle
9:55 AM 63.3 °F 59.2 °F 86% 30.33 in 10.0 mi East 5.8 mph - 0.00 in   Light Drizzle
10:03 AM 64.4 °F 59.0 °F 83% 30.33 in 10.0 mi East 5.8 mph - N/A   Clear
10:10 AM 64.4 °F 59.0 °F 83% 30.33 in 10.0 mi East 6.9 mph - N/A Rain Light Rain
10:32 AM 66.2 °F 60.8 °F 83% 30.33 in 10.0 mi ESE 5.8 mph - N/A   Clear
10:34 AM 66.2 °F 60.8 °F 83% 30.33 in 10.0 mi Variable 4.6 mph - N/A   Light Drizzle
10:55 AM 66.6 °F 61.5 °F 84% 30.33 in 10.0 mi ESE 9.2 mph - 0.00 in   Light Drizzle
11:07 AM 68.0 °F 62.6 °F 83% 30.32 in 10.0 mi SE 6.9 mph - N/A   Clear
11:11 AM 68.0 °F 62.6 °F 83% 30.32 in 10.0 mi SSE 8.1 mph - N/A   Light Drizzle
11:55 AM 66.7 °F 61.9 °F 84% 30.30 in 10.0 mi SE 9.2 mph - 0.00 in   Light Drizzle
12:02 PM 66.2 °F 62.6 °F 88% 30.30 in 10.0 mi SE 6.9 mph - N/A   Clear
12:05 PM 66.2 °F 62.6 °F 88% 30.30 in 10.0 mi SE 8.1 mph - N/A   Light Drizzle
12:44 PM 68.0 °F 62.6 °F 83% 30.28 in 10.0 mi SSE 8.1 mph - N/A   Clear
12:45 PM 68.0 °F 62.6 °F 83% 30.28 in 10.0 mi SSE 8.1 mph - N/A   Light Drizzle
12:55 PM 68.0 °F 63.1 °F 84% 30.27 in 10.0 mi SE 8.1 mph - 0.00 in   Light Drizzle
1:50 PM 68.0 °F 62.6 °F 83% 30.27 in 10.0 mi SE 8.1 mph - N/A   Clear
1:51 PM 68.0 °F 62.6 °F 83% 30.27 in 10.0 mi SE 8.1 mph - N/A   Light Drizzle
1:55 PM 67.8 °F 63.0 °F 84% 30.27 in 10.0 mi SSE 5.8 mph - 0.00 in   Light Drizzle
2:10 PM 68.0 °F 62.6 °F 83% 30.27 in 10.0 mi SSE 6.9 mph - N/A   Clear
2:20 PM 68.0 °F 62.6 °F 83% 30.27 in 10.0 mi SSE 8.1 mph - N/A   Light Drizzle
2:42 PM 68.0 °F 62.6 °F 83% 30.27 in 10.0 mi SSE 5.8 mph - N/A   Clear
2:43 PM 68.0 °F 62.6 °F 83% 30.27 in 10.0 mi SSE 5.8 mph - N/A Rain Light Rain
2:48 PM 68.0 °F 62.6 °F 83% 30.27 in 10.0 mi SE 5.8 mph - N/A   Clear
2:55 PM 68.4 °F 63.0 °F 83% 30.27 in 10.0 mi SSE 3.5 mph - 0.00 in   Clear
2:56 PM 68.0 °F 62.6 °F 83% 30.27 in 10.0 mi Variable 4.6 mph - N/A Rain Light Rain
3:11 PM 68.0 °F 62.6 °F 83% 30.27 in 10.0 mi SSE 5.8 mph - N/A   Clear
3:40 PM 68.0 °F 62.6 °F 83% 30.27 in 10.0 mi South 8.1 mph - N/A Rain Light Rain
3:55 PM 66.7 °F 63.0 °F 88% 30.27 in 10.0 mi South 5.8 mph - 0.00 in   Light Drizzle
3:57 PM 66.2 °F 62.6 °F 88% 30.27 in 10.0 mi South 5.8 mph - N/A   Clear
4:24 PM 66.2 °F 62.6 °F 88% 30.28 in 10.0 mi South 3.5 mph - N/A Rain Light Rain
4:55 PM 64.8 °F 64.2 °F 98% 30.27 in 10.0 mi Calm Calm - 0.00 in   Clear
4:58 PM 64.4 °F 64.4 °F 100% 30.27 in 10.0 mi Calm Calm - N/A Rain Light Rain
5:08 PM 64.4 °F 64.4 °F 100% 30.27 in 10.0 mi Calm Calm - N/A   Clear
5:27 PM 64.4 °F 64.4 °F 100% 30.27 in 10.0 mi Calm Calm - N/A Rain Light Rain
5:30 PM 64.4 °F 64.4 °F 100% 30.27 in 10.0 mi Calm Calm - N/A   Clear
5:35 PM 64.4 °F 64.4 °F 100% 30.27 in 10.0 mi Calm Calm - N/A Rain Light Rain
5:37 PM 62.6 °F 62.6 °F 100% 30.27 in 10.0 mi Calm Calm - N/A   Clear
5:41 PM 64.4 °F 64.4 °F 100% 30.27 in 10.0 mi Calm Calm - N/A   Light Drizzle
5:55 PM 63.9 °F 63.9 °F 100% 30.27 in 10.0 mi Calm Calm - 0.00 in   Light Drizzle
6:10 PM 62.6 °F 62.6 °F 100% 30.28 in 10.0 mi Calm Calm - N/A   Clear
6:17 PM 62.6 °F 62.6 °F 100% 30.28 in 10.0 mi Calm Calm - N/A   Light Drizzle
6:21 PM 60.8 °F 60.8 °F 100% 30.28 in 10.0 mi Calm Calm - N/A   Light Drizzle
6:27 PM 60.8 °F 60.8 °F 100% 30.28 in 10.0 mi Calm Calm - N/A   Mostly Cloudy
6:55 PM 61.3 °F 61.3 °F 100% 30.29 in 10.0 mi Calm Calm - 0.00 in   Overcast
7:01 PM 62.6 °F 62.6 °F 100% 30.29 in 10.0 mi Calm Calm - N/A   Light Drizzle
7:20 PM 60.8 °F 60.8 °F 100% 30.29 in 10.0 mi Calm Calm - N/A   Mostly Cloudy
7:31 PM 60.8 °F 60.8 °F 100% 30.29 in 10.0 mi Calm Calm - N/A   Mostly Cloudy
7:32 PM 59.0 °F 59.0 °F 100% 30.29 in 10.0 mi ENE 3.5 mph - N/A   Light Drizzle
7:39 PM 59.0 °F 59.0 °F 100% 30.30 in 10.0 mi Calm Calm - N/A   Mostly Cloudy
7:51 PM 59.0 °F 59.0 °F 100% 30.30 in 10.0 mi ENE 4.6 mph - N/A   Light Drizzle
7:55 PM 58.3 °F 58.1 °F 99% 30.30 in 10.0 mi ENE 4.6 mph - 0.00 in   Light Drizzle
8:55 PM 61.3 °F 61.3 °F 100% 30.28 in 10.0 mi ESE 4.6 mph - 0.00 in   Light Drizzle
9:03 PM 60.8 °F 60.8 °F 100% 30.29 in 10.0 mi ESE 4.6 mph - N/A   Partly Cloudy
9:07 PM 60.8 °F 60.8 °F 100% 30.28 in 10.0 mi East 4.6 mph - N/A   Light Drizzle
9:24 PM 60.8 °F 60.8 °F 100% 30.29 in 10.0 mi East 4.6 mph - N/A   Clear
9:25 PM 60.8 °F 60.8 °F 100% 30.29 in 10.0 mi East 4.6 mph - N/A Rain Light Rain
9:55 PM 61.3 °F 61.3 °F 100% 30.28 in 10.0 mi East 4.6 mph - 0.00 in   Light Drizzle
10:55 PM 61.5 °F 61.5 °F 100% 30.27 in 10.0 mi ESE 3.5 mph - 0.00 in   Light Drizzle
11:09 PM 57.2 °F 57.2 °F 100% 30.28 in 7.0 mi North 3.5 mph - N/A   Clear
11:22 PM 55.4 °F 55.4 °F 100% 30.28 in 8.0 mi North 3.5 mph - N/A   Light Drizzle
11:23 PM 55.4 °F 55.4 °F 100% 30.28 in 8.0 mi North 3.5 mph - N/A   Clear
11:26 PM 55.4 °F 55.4 °F 100% 30.27 in 8.0 mi North 4.6 mph - N/A   Light Drizzle
11:30 PM 55.4 °F 55.4 °F 100% 30.27 in 8.0 mi North 4.6 mph - N/A   Light Drizzle
11:37 PM 55.4 °F 55.4 °F 100% 30.28 in 9.0 mi North 4.6 mph - N/A   Clear
11:44 PM 53.6 °F 53.6 °F 100% 30.28 in 2.5 mi North 4.6 mph - N/A   Clear
11:45 PM 53.6 °F 53.6 °F 100% 30.28 in 1.5 mi NNE 4.6 mph - N/A   Clear
11:46 PM 53.6 °F 53.6 °F 100% 30.28 in 1.2 mi NNE 4.6 mph - N/A   Clear
11:47 PM 53.6 °F 53.6 °F 100% 30.28 in 1.0 mi NNE 4.6 mph - N/A   Clear
11:48 PM 53.6 °F 53.6 °F 100% 30.28 in 0.8 mi NNE 4.6 mph - N/A   Clear
11:50 PM 53.6 °F 53.6 °F 100% 30.28 in 0.8 mi NNE 4.6 mph - N/A   Clear
11:51 PM 53.6 °F 53.6 °F 100% 30.28 in 0.5 mi NNE 4.6 mph - N/A Fog Fog
11:52 PM 53.6 °F 53.6 °F 100% 30.28 in 0.5 mi NNE 3.5 mph - N/A Fog Fog
11:55 PM 54.0 °F 54.0 °F 100% 30.28 in 0.5 mi NNE 3.5 mph - 0.00 in Fog Fog
11:59 PM 53.6 °F 53.6 °F 100% 30.28 in 0.5 mi Calm Calm - N/A Fog Fog